TimeCST,TemperatureF,Dew PointF,Humidity,Sea Level PressureIn,VisibilityMPH,Wind Direction,Wind SpeedMPH,Gust SpeedMPH,PrecipitationIn,Events,Conditions,WindDirDegrees,DateUTC
12:15 AM,26.6,21.2,80,30.23,10.0,Calm,Calm,-,N/A,,Clear,0,2013-01-03 06:15:00
12:35 AM,26.6,21.2,80,30.24,10.0,WSW,4.6,-,N/A,,Clear,240,2013-01-03 06:35:00
12:55 AM,26.6,21.2,80,30.24,10.0,WSW,4.6,-,N/A,,Clear,240,2013-01-03 06:55:00
1:15 AM,26.6,21.2,80,30.25,9.0,WSW,5.8,-,N/A,,Clear,250,2013-01-03 07:15:00
1:35 AM,24.8,21.2,86,30.25,8.0,Calm,Calm,-,N/A,,Clear,0,2013-01-03 07:35:00
1:55 AM,26.6,21.2,80,30.25,8.0,Calm,Calm,-,N/A,,Clear,0,2013-01-03 07:55:00
2:15 AM,24.8,21.2,86,30.26,8.0,WSW,4.6,-,N/A,,Clear,250,2013-01-03 08:15:00
2:35 AM,24.8,21.2,86,30.26,7.0,Calm,Calm,-,N/A,,Clear,0,2013-01-03 08:35:00
2:55 AM,24.8,21.2,86,30.27,7.0,Calm,Calm,-,N/A,,Clear,0,2013-01-03 08:55:00
3:15 AM,24.8,21.2,86,30.28,7.0,Calm,Calm,-,N/A,,Clear,0,2013-01-03 09:15:00
3:35 AM,24.8,21.2,86,30.29,6.0,WSW,4.6,-,N/A,,Clear,250,2013-01-03 09:35:00
3:55 AM,24.8,21.2,86,30.29,5.0,Calm,Calm,-,N/A,,Clear,0,2013-01-03 09:55:00
4:15 AM,24.8,21.2,86,30.29,5.0,WSW,4.6,-,N/A,,Clear,240,2013-01-03 10:15:00
4:35 AM,23.0,21.2,93,30.30,5.0,Calm,Calm,-,N/A,,Clear,0,2013-01-03 10:35:00
4:55 AM,23.0,21.2,93,30.31,5.0,Calm,Calm,-,N/A,,Clear,0,2013-01-03 10:55:00
5:15 AM,23.0,21.2,93,30.31,5.0,Calm,Calm,-,N/A,,Clear,0,2013-01-03 11:15:00
5:35 AM,23.0,21.2,93,30.32,5.0,Calm,Calm,-,N/A,,Clear,0,2013-01-03 11:35:00
6:55 AM,23.0,23.0,100,30.33,4.0,Calm,Calm,-,N/A,,Clear,0,2013-01-03 12:55:00
7:46 AM,23.0,21.2,93,30.34,4.0,Calm,Calm,-,N/A,,Clear,0,2013-01-03 13:46:00
8:45 AM,26.6,24.8,93,30.36,5.0,Calm,Calm,-,N/A,,Clear,0,2013-01-03 14:45:00
9:45 AM,28.4,24.8,86,30.39,5.0,WNW,4.6,-,N/A,,Clear,300,2013-01-03 15:45:00
10:45 AM,32.0,26.6,80,30.41,9.0,Calm,Calm,-,N/A,,Clear,0,2013-01-03 16:45:00
11:50 AM,35.6,24.8,65,30.39,10.0,WNW,6.9,-,N/A,,Clear,300,2013-01-03 17:50:00
12:47 PM,37.4,23.0,56,30.37,10.0,West,8.1,-,N/A,,Clear,280,2013-01-03 18:47:00
1:47 PM,39.2,24.8,56,30.34,10.0,WNW,4.6,-,N/A,,Clear,290,2013-01-03 19:47:00
2:57 PM,39.2,23.0,52,30.35,10.0,West,3.5,-,N/A,,Partly Cloudy,270,2013-01-03 20:57:00
3:51 PM,41.0,23.0,49,30.35,10.0,West,6.9,-,N/A,,Partly Cloudy,270,2013-01-03 21:51:00
4:58 PM,37.4,23.0,56,30.37,10.0,Calm,Calm,-,N/A,,Clear,0,2013-01-03 22:58:00
5:45 PM,35.6,21.2,56,30.38,10.0,Calm,Calm,-,N/A,,Partly Cloudy,0,2013-01-03 23:45:00
6:45 PM,32.0,23.0,69,30.38,10.0,Calm,Calm,-,N/A,,Clear,0,2013-01-04 00:45:00
7:45 PM,32.0,23.0,69,30.40,10.0,Calm,Calm,-,N/A,,Clear,0,2013-01-04 01:45:00
8:15 PM,30.2,23.0,75,30.40,10.0,Calm,Calm,-,N/A,,Mostly Cloudy,0,2013-01-04 02:15:00
8:35 PM,32.0,24.8,75,30.40,10.0,Calm,Calm,-,N/A,,Overcast,0,2013-01-04 02:35:00
8:45 PM,32.0,23.0,69,30.40,10.0,Calm,Calm,-,N/A,,Mostly Cloudy,0,2013-01-04 02:45:00
8:55 PM,32.0,24.8,75,30.40,10.0,Calm,Calm,-,N/A,,Overcast,0,2013-01-04 02:55:00
9:15 PM,32.0,23.0,69,30.40,10.0,Calm,Calm,-,N/A,,Overcast,0,2013-01-04 03:15:00
9:35 PM,32.0,23.0,69,30.40,10.0,Calm,Calm,-,N/A,,Overcast,0,2013-01-04 03:35:00
9:55 PM,32.0,23.0,69,30.40,10.0,Calm,Calm,-,N/A,,Overcast,0,2013-01-04 03:55:00
10:15 PM,32.0,24.8,75,30.40,10.0,Calm,Calm,-,N/A,,Mostly Cloudy,0,2013-01-04 04:15:00
10:35 PM,32.0,23.0,69,30.39,10.0,Calm,Calm,-,N/A,,Mostly Cloudy,0,2013-01-04 04:35:00
10:55 PM,32.0,23.0,69,30.39,10.0,Calm,Calm,-,N/A,,Scattered Clouds,0,2013-01-04 04:55:00
11:15 PM,30.2,23.0,75,30.40,10.0,Calm,Calm,-,N/A,,Clear,0,2013-01-04 05:15:00
11:35 PM,28.4,23.0,80,30.40,10.0,Calm,Calm,-,N/A,,Partly Cloudy,0,2013-01-04 05:35:00
11:55 PM,30.2,23.0,75,30.40,10.0,Calm,Calm,-,N/A,,Scattered Clouds,0,2013-01-04 05:55:00